Regional Weather Roundup
Issued by NWS

Home | Current Version | Previous Version | Graphics & Text | Print | Product List | Glossary On
Versions: 1 2 3 4 5 6 7 8 9 10 11 12 13 14 15 16 17 18 19 20 21 22 23 24 25 26 27 28 29 30 31 32 33 34 35 36 37 38 39 40 41 42 43 44 45 46 47 48 49 50
000
ASUS43 KMPX 270701
RWRMN
WEATHER ROUNDUP FOR MINNESOTA
NATIONAL WEATHER SERVICE TWIN CITIES/CHANHASSEN MN
200 AM CDT SAT AUG 27 2016


NOTE: "FAIR" INDICATES FEW OR NO CLOUDS BELOW 12,000 FEET WITH NO
SIGNIFICANT WEATHER AND/OR OBSTRUCTIONS TO VISIBILITY. N/A MEANS
CURRENT SKY AND/OR WEATHER CONDITIONS ARE NOT AVAILABLE.

MNZ060>063-068>070-270800-
   Twin Cities Metro

CITY           SKY/WX    TMP DP  RH WIND       PRES   REMARKS
TWIN CITIES    CLOUDY    65  56  72 SE6       30.10S
ST PAUL        CLOUDY    64  57  78 SE5       30.11R
CRYSTAL        CLOUDY    62  54  74 CALM      30.08F
BLAINE         PTCLDY    63  61  94 CALM      30.10F
LAKEVILLE      CLOUDY    61  61 100 CALM      30.10S
EDEN PRAIRIE   CLOUDY    66  56  70 E3        30.09S
LAKEVILLE      CLOUDY    61  61 100 CALM      30.10S
SOUTH ST PAUL  CLOUDY    64  57  77 CALM      30.10S
LAKE ELMO      CLOUDY    61  59  94 CALM      30.12R
$$
MNZ001>005-007-008-013>017-022>024-027-028-270800-
   Northwest Minnesota

CITY           SKY/WX    TMP DP  RH WIND       PRES   REMARKS
BEMIDJI        CLOUDY    61  54  78 S5        30.07S
HALLOCK        CLEAR     54  52  94 S8        29.99S
ROSEAU         CLOUDY    55  50  82 S6        30.02F
WARROAD        CLOUDY    57  54  88 S5        30.03S
THIEF RVR FALL CLEAR     56  51  84 S7        30.04F
CROOKSTON      CLOUDY    55  54  94 S6        30.03F
FOSSTON        CLOUDY    57  54  88 SE3       30.06F
DETROIT LAKES  CLOUDY    63  55  77 S6        30.07S
MOORHEAD       CLOUDY    63  57  82 SE5       30.04S
PARK RAPIDS    CLOUDY    61  54  77 S6        30.07F
MAHNOMEN       CLOUDY    59  55  87 SE5       30.04F
$$
MNZ006-009>011-018-025>026-270800-
   North Central Minnesota

CITY           SKY/WX    TMP DP  RH WIND       PRES   REMARKS
BAUDETTE       CLOUDY    59  53  80 S6        30.04S
FLAG ISLAND    CLOUDY    63  55  77 CALM      30.00S HAZE
INTL FALLS     CLOUDY    57  52  83 CALM      30.06S
WASKISH        CLOUDY    61  55  82 CALM      30.06S
BIG FORK       CLOUDY    57  54  88 CALM      30.09S
LONGVILLE      CLOUDY    59  55  88 CALM      30.08F
GRAND RAPIDS   LGT RAIN  60  55  83 S3        30.11F
CRANE LAKE     MOCLDY    57  54  88 S1        30.10S
ORR            DRIZZLE   57  52  82 CALM      30.07S
COOK           CLOUDY    59  54  82 CALM      30.10S
WALKER         CLOUDY    60  54  79 S3        30.08S
$$
MNZ012-019>021-037-270800-
   Northeast Minnesota

CITY           SKY/WX    TMP DP  RH WIND       PRES   REMARKS
DULUTH         PTCLDY    59  53  80 SW5       30.11F
ELY            PTCLDY    57  52  82 S3        30.11S
HIBBING        MOCLDY    52  51  97 CALM      30.11S
EVELETH        CLOUDY    54  53  96 CALM      30.12S
DULUTH HARBOR  MOCLDY    61  55  82 CALM      30.11F
TWO HARBORS    PTCLDY    55  52  88 CALM      30.10F
SILVER BAY     CLOUDY    52  50  93 CALM      30.11S
G MARAIS ARPRT PTCLDY    46  45  93 CALM      30.15F
$$
MNZ029>031-032-039>041-046>048-054>057-064-270800-
   West Central Minnesota

CITY           SKY/WX    TMP DP  RH WIND       PRES   REMARKS
FERGUS FALLS   CLOUDY    63  55  77 S8        30.06F
WHEATON        CLOUDY    64  59  82 SE6       30.06S
MORRIS         CLOUDY    63  57  82 SE6       30.05S
ALEXANDRIA     CLOUDY    62  56  80 S5        30.08F
ELBOW LAKE     CLOUDY    60  57  91 E7        30.06S
WADENA         MOCLDY    59  54  82 SE5       30.07F
GLENWOOD       CLOUDY    59  57  94 S3        30.08S
APPLETON       CLOUDY    63  57  82 SE6       30.04F
BENSON         LGT RAIN  61  55  82 S6        30.06S
ORTONVILLE     CLOUDY    63  57  82 CALM      30.04F
MADISON        CLOUDY    61  59  94 S6        30.05F
WILLMAR        FAIR      61  57  88 SE3       30.08F
$$
MNZ033>034-036-042>043-049>051-058-059-270800-
   Central Minnesota

CITY           SKY/WX    TMP DP  RH WIND       PRES   REMARKS
ST CLOUD       MOCLDY    59  58  96 E3        30.08F
SAUK CENTRE    FAIR      58  56  92 SE3       30.08F
PAYNESVILLE    CLOUDY    63  56  80 SE6       30.09S
AITKIN         CLOUDY    61  54  77 CALM      30.08F
PINE RIVER     CLOUDY    57  55  94 CALM      30.11F
BRAINERD       CLOUDY    60  56  86 CALM      30.08F
STAPLES        MOCLDY    57  54  88 CALM      30.09S
LONG PRAIRIE   CLOUDY    59  55  88 CALM      30.08F
LITTLE FALLS   LGT RAIN  59  54  82 SE3       30.08F
LITCHFIELD     PTCLDY    63  57  82 SE6       30.09F
BUFFALO        MOCLDY    60  56  88 CALM      30.10F
MAPLE LAKE     MOCLDY    62  59  90 CALM      30.10S
HUTCHINSON     PTCLDY    61  59  94 E3        30.09F
$$
MNZ037-044-045-052-053-270800-
   East Central Minnesota

CITY           SKY/WX    TMP DP  RH WIND       PRES   REMARKS
PRINCETON      CLOUDY    57  55  94 CALM      30.10S
MORA           CLOUDY    54  52  94 CALM      30.11F
CAMBRIDGE      MOCLDY    61  54  77 CALM      30.09F
RUSH CITY      MOCLDY    55  54  95 CALM      30.11F
MOOSE LAKE     PTCLDY    54  52  94 CALM      30.09F FOG
HINCKLEY       FAIR      54  54 100 CALM      30.11F
CLOQUET        CLOUDY    57  52  82 CALM      30.11F
MCGREGOR       CLOUDY    57  54  88 CALM      30.10F
$$
MNZ071>073-080-081-089-090-097-098-270800-
   Southwest Minnesota

CITY           SKY/WX    TMP DP  RH WIND       PRES   REMARKS
MONTEVIDEO     CLOUDY    63  57  82 S6        30.08S
GRANITE FALLS  CLOUDY    63  59  89 SE5       30.08S
CANBY          CLOUDY    62  59  90 E5        30.06F
MARSHALL       CLOUDY    62  59  90 S6        30.07
REDWOOD FALLS  MOCLDY    61  57  87 SE5       30.06F
OLIVIA         CLOUDY    61  55  82 SE6       30.06F
PIPESTONE      CLOUDY    63  59  88 SE5       30.06F
WINDOM         RAIN      63  57  82 E6        30.07F
WORTHINGTON    CLOUDY    61  59  93 NE5       30.08F
JACKSON          N/A     63  57  82 E7        30.08F
TRACY          CLOUDY    63  59  88 SE5       30.07F
SLAYTON        CLOUDY    59  57  94 SE3       30.08F
$$
MNZ065>067-074>077-082>085-091>093-270800-
   South Central Minnesota

CITY           SKY/WX    TMP DP  RH WIND       PRES   REMARKS
MANKATO        CLOUDY    63  57  82 SE6       30.08F
NEW ULM          N/A     63  57  82 CALM      30.07F
ST JAMES       CLOUDY    57  55  94 SE3       30.08F
FAIRMONT       CLOUDY    61  59  93 E6        30.08F
GLENCOE        CLOUDY    60  59  97 CALM      30.09S
FARIBAULT      CLOUDY    63  59  88 SE3       30.10S
OWATONNA       MOCLDY    63  57  82 SE5       30.10F
WASECA         CLOUDY    61  55  82 SE5       30.11S
ALBERT LEA     CLOUDY    63  59  88 SE5       30.09F
$$
MNZ078>079-086>088-094>096-270800-
   Southeast Minnesota

CITY           SKY/WX    TMP DP  RH WIND       PRES   REMARKS
ROCHESTER      CLOUDY    61  60  97 SE7       30.11F
RED WING       CLOUDY    64  57  77 CALM      30.09S
STANTON        CLOUDY    64  59  82 CALM      30.10R
DODGE CENTER   CLOUDY    61  57  88 SE7       30.10F
WINONA         LGT RAIN  63  61  94 SE5       30.12S
AUSTIN         CLOUDY    61  57  88 CALM      30.10F
PRESTON        CLOUDY    60  58  91 E3        30.12F
$$
ABBREVIATIONS USED IN REMARKS
   TC - TEMPERATURES IN CELSIUS
  WCI - WIND CHILL INDEX
   HX - HEAT INDEX
  VSB - VISIBILITY
$$




USA.gov is the U.S. government's official web portal to all federal, state and local government web resources and services.